Location: Clanezzo
(45.7500°N, 9.6000°E)
Time: 11:50:29
(UTC+00:00)

Envisat - Visible Passes

Search period start: 18 January 2022 00:00
Search period end: 28 January 2022 00:00
Orbit: 764 x 766 km, 98.2° (Epoch: 17 January)

Date Brightness Start Highest point End Pass type
(mag) Time Alt. Az. Time Alt. Az. Time Alt. Az.
18 Jan 3.0 04:18:22 10° NNE 04:23:29 78° ESE 04:28:34 10° S visible
18 Jan 4.4 05:58:50 10° NNW 06:01:53 16° WNW 06:04:55 10° W visible
19 Jan 4.3 03:41:48 10° NNE 03:46:30 37° E 03:51:10 10° SSE visible
19 Jan 3.7 05:20:59 10° N 05:25:25 31° WNW 05:29:50 10° SW visible
19 Jan 5.8 16:39:21 10° SW 16:42:48 18° W 16:46:17 10° NW visible
20 Jan 5.5 03:05:55 10° NE 03:09:18 18° E 03:12:39 10° SE visible
20 Jan 2.9 04:43:43 10° N 04:48:45 63° WNW 04:53:45 10° SSW visible
21 Jan 3.4 04:06:50 10° NNE 04:11:53 62° E 04:16:54 10° S visible
21 Jan 4.2 05:46:51 10° NNW 05:50:26 20° WNW 05:54:01 10° WSW visible
21 Jan 6.5 17:07:42 10° W 17:08:27 10° W 17:09:12 10° WNW visible
22 Jan 4.7 03:30:24 10° NE 03:34:50 29° E 03:39:14 10° SSE visible
22 Jan 3.4 05:09:14 10° N 05:13:54 38° WNW 05:18:34 10° SW visible
23 Jan 5.8 02:54:58 10° ENE 02:57:33 14° E 03:00:08 10° ESE visible
23 Jan 2.8 04:32:05 10° N 04:37:11 79° WNW 04:42:15 10° SSW visible
23 Jan 4.7 06:13:20 10° NNW 06:15:21 12° NW 06:17:23 10° W visible
24 Jan 3.8 03:55:19 10° NNE 04:00:16 49° E 04:05:10 10° S visible
24 Jan 4.0 05:34:57 10° N 05:38:58 24° WNW 05:42:58 10° WSW visible
24 Jan 6.1 16:54:14 10° WSW 16:56:41 13° W 16:59:08 10° WNW visible
25 Jan 5.1 03:19:05 10° NE 03:23:08 23° E 03:27:10 10° SE visible
25 Jan 3.2 04:57:30 10° N 05:02:23 47° WNW 05:07:13 10° SW visible
26 Jan 6.0 02:44:40 10° ENE 02:45:48 11° E 02:46:56 10° E visible
26 Jan 2.9 04:20:28 10° NNE 04:25:36 83° ESE 04:30:41 10° SSW visible
26 Jan 4.5 06:01:04 10° NNW 06:03:56 15° WNW 06:06:47 10° W visible
27 Jan 4.2 03:43:50 10° NNE 03:48:37 39° E 03:53:20 10° SSE visible
27 Jan 3.8 05:23:08 10° N 05:27:29 29° WNW 05:31:49 10° SW visible
